User: anonymous   Login
Location: Deer Lodge Site
(39.6809°N, 119.9392°W)
Time: 08:58:36
(UTC-08:00)
Language:

CZ-4C R/B - Orbit

View from above orbital plane
View from above orbital plane
View from above satellite
View from above satellite

Ground track
Ground track

The orbit data is extracted from the following two-line orbital elements,

1 36416U 10009D   14327.13832763  .00000006  00000-0  85877-4 0  7836
2 36416 063.4487 254.6709 0295568 359.7789 000.3073 13.69436378236048
Epoch (UTC): 23 November 2014 03:19:11
Eccentricity: 0.0295568
inclination: 63.4487°
perigee height: 783 km
apogee height: 1220 km
right ascension of ascending node: 254.6709°
argument of perigee: 359.7789°
revolutions per day: 13.69436378
mean anomaly at epoch: 0.3073°
orbit number at epoch: 23604

The dashed part of the orbit path shows where the satellite is in the earth's shadow,  

DLR